[[{"header":{"parameterUnit":"m.s-1","parameterCategory":1,"la1":30.2991,"la2":30.254,"lo1":-89.0895,"lo2":-89.0444,"dy":0.0017,"dx":0.0017,"nx":28,"ny":28,"refTime":"2025-09-14T03:00:00:Z","depth":0,"parameterNumber":2,"parameterNumberName":"U-component_of_WINDS"},"data":[0,0,0,0,0,0,0,0,0,0,0,0,0,0,0,0,0,0,0,0,0,0,0,0,0,0,0,0,0,0,0,0,0,0,0,0,0,0,0,0,0,0,0,0,0,0,0,0,0,0,0,0,0,0,0,0,0,0,-0.8338,-0.8339,0,-0.8443,-0.8444,-0.8446,-0.8517,-0.8517,-0.8518,-0.8518,-0.8625,-0.8627,-0.8629,0,0,0,0,0,0,0,0,0,0,0,0,0,-0.82,-0.8202,-0.8338,-0.834,-0.8341,-0.8443,-0.8444,-0.8446,-0.8516,-0.8517,-0.8518,-0.8518,-0.8624,-0.8627,-0.8629,0,0,0,0,0,0,0,0,0,0,0,0,0,-0.8278,-0.8203,-0.8338,-0.8388,-0.8394,-0.8443,-0.8444,-0.8446,-0.8516,-0.8517,-0.8518,-0.8519,-0.8623,-0.8626,-0.863,-0.8636,0,0,-0.8641,-0.8642,0,0,0,0,0,0,0,0,-0.8273,-0.8283,-0.838,-0.8385,-0.8391,-0.8468,-0.8435,-0.851,-0.8516,-0.847,-0.8518,-0.8519,-0.8572,-0.858,-0.8597,-0.8641,-0.8646,-0.8641,-0.8643,-0.8645,-0.8646,0,0,0,0,0,0,0,-0.8268,-0.8279,-0.838,-0.8381,-0.8388,-0.8406,-0.8418,-0.8449,-0.8515,-0.8474,-0.8479,-0.8491,-0.8575,-0.8594,-0.8601,-0.8648,-0.8641,-0.8644,-0.8646,-0.8648,-0.8704,-0.8703,0,0,0,0,0,0,-0.8254,-0.8274,-0.8376,-0.8383,-0.8333,-0.8408,-0.8421,-0.8442,-0.8515,-0.8527,-0.849,-0.8494,-0.8587,-0.8596,-0.8605,-0.8618,-0.8645,-0.8648,-0.865,-0.8705,-0.8704,-0.8703,0,0,0,0,0,0,-0.8251,-0.8263,-0.8372,-0.833,-0.8345,-0.8409,-0.8433,-0.8444,-0.8463,-0.8527,-0.8539,-0.8497,-0.8588,-0.86,-0.8628,-0.8623,-0.865,-0.8653,-0.8705,-0.8704,-0.8704,-0.8644,0,0,0,0,0,0,-0.8247,-0.8261,-0.8264,-0.8329,-0.8347,-0.8394,-0.8432,-0.8445,-0.8469,-0.8475,-0.8537,-0.8548,-0.859,-0.8623,-0.8632,-0.8628,-0.8656,-0.8706,-0.8705,-0.8704,-0.8647,-0.8641,-0.8637,0,0,0,0,0,-0.8242,-0.8243,-0.8264,-0.8276,-0.8352,-0.8393,-0.8404,-0.8452,-0.8468,-0.8472,-0.8514,-0.8546,-0.8622,-0.8625,-0.8636,-0.8633,-0.8707,-0.8705,-0.8704,-0.8649,-0.8643,-0.8637,0,0,0,0,0,0,-0.8175,-0.8252,-0.8277,-0.8299,-0.8339,-0.8405,-0.8411,-0.8443,-0.8479,-0.8483,-0.8541,-0.8554,-0.8578,-0.8608,-0.8611,-0.8644,-0.8668,-0.8669,-0.8623,-0.8617,-0.8612,-0.8604,-0.8659,0,0,0,0,0,-0.8163,-0.819,-0.8256,-0.8269,-0.8288,-0.8346,-0.8366,-0.84,-0.8444,-0.8461,-0.8505,-0.8546,-0.858,-0.86,-0.8634,-0.8652,-0.8667,-0.8656,-0.865,-0.8646,-0.8646,-0.8659,-0.8654,-0.8699,-0.8699,-0.8699,0,0,-0.8138,-0.8183,-0.8197,-0.8257,-0.8292,-0.8319,-0.836,-0.8387,-0.8407,-0.8465,-0.8495,-0.8529,-0.8579,-0.8603,-0.8615,-0.8629,-0.8637,-0.8644,-0.864,-0.8642,-0.8657,-0.8652,-0.8649,-0.8698,-0.8698,-0.8698,0,0,-0.8106,-0.8143,-0.8159,-0.8194,-0.8247,-0.8286,-0.8289,-0.8351,-0.8376,-0.8407,-0.8452,-0.8477,-0.8533,-0.8567,-0.8592,-0.8575,-0.8607,-0.8585,-0.8557,-0.8569,-0.8566,-0.8563,-0.8558,-0.8555,-0.8585,-0.8584,-0.8584,0,-0.8068,-0.8111,-0.8163,-0.8188,-0.8213,-0.8267,-0.8284,-0.8315,-0.8376,-0.8393,-0.8408,-0.848,-0.8517,-0.855,-0.8546,-0.8564,-0.8571,-0.8578,-0.8562,-0.856,-0.8558,-0.8554,-0.8551,-0.8581,-0.8582,-0.8582,-0.8582,0,-0.8063,-0.8091,-0.8098,-0.8156,-0.8183,-0.8203,-0.8258,-0.8279,-0.8311,-0.8348,-0.838,-0.8427,-0.8472,-0.8483,-0.8513,-0.852,-0.8527,-0.8551,-0.8577,-0.855,-0.8547,-0.8546,-0.8577,-0.8578,-0.8579,-0.858,0,0,-0.7991,-0.8079,-0.808,-0.8108,-0.8171,-0.8195,-0.8218,-0.8263,-0.828,-0.832,-0.8342,-0.8389,-0.8412,-0.844,-0.8475,-0.8485,-0.847,-0.8509,-0.8511,-0.85,-0.8482,-0.8463,-0.846,-0.8492,-0.8492,-0.8492,-0.8478,0,-0.7969,-0.8014,-0.8062,-0.809,-0.8118,-0.8171,-0.8191,-0.8232,-0.8268,-0.8297,-0.8337,-0.8369,-0.8397,-0.8414,-0.8427,-0.8469,-0.8467,-0.8471,-0.8512,-0.8513,-0.8498,-0.8459,-0.8439,-0.8424,-0.8477,-0.8476,-0.8476,0,-0.795,-0.7989,-0.802,-0.8082,-0.8095,-0.8113,-0.8158,-0.8185,-0.8233,-0.8259,-0.8291,-0.8329,-0.8357,-0.8379,-0.8418,-0.842,-0.844,-0.8463,-0.8464,-0.847,-0.8493,-0.8464,-0.842,-0.8417,-0.8475,-0.8475,-0.8475,0,-0.7896,-0.7956,-0.7982,-0.8004,-0.8077,-0.8088,-0.8119,-0.8168,-0.8192,-0.8232,-0.8249,-0.8291,-0.8314,-0.8346,-0.8395,-0.8406,-0.8429,-0.8455,-0.8451,-0.845,-0.8454,-0.8453,-0.8413,-0.8466,-0.8466,-0.8466,-0.8466,0,-0.7867,-0.7884,-0.7959,-0.7975,-0.7996,-0.8052,-0.8071,-0.8106,-0.815,-0.8174,-0.8222,-0.8244,-0.8307,-0.8337,-0.8375,-0.8402,-0.8412,-0.8434,-0.8444,-0.843,-0.8427,-0.8444,-0.8446,-0.8465,-0.8465,-0.8466,-0.8466,0,-0.7809,-0.786,-0.7893,-0.7959,-0.7977,-0.7989,-0.8046,-0.8064,-0.8103,-0.8134,-0.8144,-0.8205,-0.8243,-0.8295,-0.8348,-0.8374,-0.8396,-0.8412,-0.838,-0.8386,-0.8379,-0.8379,-0.8348,-0.8347,-0.84,-0.8399,-0.8399,0,-0.7787,-0.7802,-0.787,-0.789,-0.792,-0.7951,-0.7977,-0.8032,-0.8056,-0.8113,-0.8124,-0.8166,-0.8202,-0.8259,-0.8308,-0.835,-0.8367,-0.8353,-0.8373,-0.8359,-0.8367,-0.8366,-0.8368,-0.8348,-0.8347,-0.8347,-0.8346,0,-0.7744,-0.7769,-0.7803,-0.7847,-0.7876,-0.7913,-0.7952,-0.7966,-0.803,-0.8055,-0.8094,-0.8122,-0.8177,-0.8218,-0.8266,-0.8298,-0.8333,-0.834,-0.8341,-0.8327,-0.8308,-0.8319,-0.8367,-0.834,-0.8341,-0.8341,-0.8341,-0.8342,-0.7704,-0.772,-0.7771,-0.7808,-0.7844,-0.788,-0.79,-0.7942,-0.7976,-0.8025,-0.8056,-0.8094,-0.8143,-0.8211,-0.8242,-0.8273,-0.8287,-0.8288,-0.8289,-0.8288,-0.8284,-0.8303,-0.8281,-0.8282,-0.8282,-0.8282,-0.8282,0,-0.7664,-0.7699,-0.7733,-0.7787,-0.7816,-0.7847,-0.7893,-0.7915,-0.7948,-0.7991,-0.8026,-0.8071,-0.8111,-0.8164,-0.8208,-0.8222,-0.8239,-0.8232,-0.8231,-0.8238,-0.8269,-0.8263,-0.8217,-0.8217,-0.8217,-0.8217,-0.8217,-0.8217,-0.7646,-0.7675,-0.7706,-0.7753,-0.7788,-0.7826,-0.785,-0.7883,-0.7918,-0.7967,-0.8,-0.8034,-0.8082,-0.8129,-0.8168,-0.8182,-0.8196,-0.8184,-0.8203,-0.823,-0.8236,-0.8242,-0.8237,-0.8186,-0.8186,-0.8171,-0.8171,-0.817]},{"header":{"parameterUnit":"m.s-1","parameterCategory":1,"la1":30.2991,"la2":30.254,"lo1":-89.0895,"lo2":-89.0444,"dy":0.0017,"dx":0.0017,"nx":28,"ny":28,"refTime":"2025-09-14T03:00:00:Z","depth":0,"parameterNumber":3,"parameterNumberName":"V-component_of_WINDS"},"data":[0,0,0,0,0,0,0,0,0,0,0,0,0,0,0,0,0,0,0,0,0,0,0,0,0,0,0,0,0,0,0,0,0,0,0,0,0,0,0,0,0,0,0,0,0,0,0,0,0,0,0,0,0,0,0,0,0,0,0.3127,0.3127,0,0.3077,0.3077,0.3076,0.3052,0.3052,0.3052,0.3052,0.2998,0.2997,0.2995,0,0,0,0,0,0,0,0,0,0,0,0,0,0.32,0.3198,0.3128,0.3127,0.3126,0.3077,0.3077,0.3076,0.3052,0.3052,0.3052,0.3052,0.2999,0.2997,0.2995,0,0,0,0,0,0,0,0,0,0,0,0,0,0.3161,0.3198,0.3128,0.3109,0.3106,0.3078,0.3077,0.3076,0.3052,0.3052,0.3052,0.3052,0.2999,0.2997,0.2995,0.298,0,0,0.2988,0.2987,0,0,0,0,0,0,0,0,0.3163,0.3158,0.3112,0.311,0.3107,0.3071,0.3082,0.3044,0.3052,0.3073,0.3052,0.3052,0.3022,0.3018,0.3009,0.2978,0.2976,0.2988,0.2987,0.2986,0.2985,0,0,0,0,0,0,0,0.3166,0.316,0.3108,0.3111,0.3109,0.3102,0.3096,0.3075,0.3048,0.3071,0.3069,0.3064,0.3021,0.3011,0.3007,0.2975,0.2988,0.2986,0.2985,0.2984,0.2929,0.2928,0,0,0,0,0,0,0.3172,0.3163,0.3109,0.3106,0.3136,0.31,0.3094,0.3083,0.3048,0.3043,0.3064,0.3063,0.3014,0.301,0.3005,0.2985,0.2986,0.2984,0.2982,0.2929,0.2929,0.2928,0,0,0,0,0,0,0.3174,0.3167,0.3111,0.3134,0.3126,0.3099,0.3086,0.3082,0.3071,0.3042,0.3037,0.3058,0.3014,0.3008,0.2987,0.2983,0.2983,0.2981,0.2929,0.2929,0.2928,0.2946,0,0,0,0,0,0,0.3176,0.3168,0.3163,0.3134,0.3125,0.3095,0.3086,0.3081,0.3068,0.3066,0.3036,0.3031,0.3014,0.299,0.2985,0.298,0.2979,0.2929,0.2929,0.2929,0.2945,0.2946,0.2947,0,0,0,0,0,0.3178,0.317,0.3163,0.3157,0.3118,0.3095,0.3089,0.307,0.3068,0.3062,0.3043,0.3032,0.2984,0.2988,0.2982,0.2976,0.2929,0.2929,0.2929,0.2945,0.2946,0.2947,0,0,0,0,0,0,0.3198,0.3165,0.3158,0.3139,0.312,0.3091,0.3083,0.3072,0.3052,0.3052,0.3028,0.3021,0.3002,0.2987,0.2992,0.296,0.2956,0.2954,0.2971,0.2971,0.2972,0.2976,0.2977,0,0,0,0,0,0.3201,0.3185,0.3157,0.3143,0.3134,0.311,0.3099,0.3086,0.3065,0.3056,0.3036,0.3015,0.2995,0.2982,0.2962,0.2943,0.2936,0.2936,0.2937,0.2938,0.2937,0.2924,0.2924,0.2927,0.2927,0.2927,0,0,0.3205,0.3185,0.3177,0.3147,0.313,0.3113,0.3103,0.3086,0.3073,0.3053,0.3032,0.3016,0.2991,0.297,0.296,0.2957,0.2934,0.2937,0.2938,0.2936,0.2924,0.2924,0.2924,0.2927,0.2927,0.2927,0,0,0.3205,0.3188,0.3175,0.3159,0.3134,0.3118,0.3115,0.3087,0.3076,0.3055,0.3039,0.3023,0.2989,0.2972,0.2959,0.2951,0.294,0.2945,0.2949,0.2937,0.2937,0.2937,0.2934,0.2933,0.2944,0.2944,0.2944,0,0.3213,0.3188,0.3169,0.3153,0.314,0.3122,0.3108,0.3092,0.3062,0.3053,0.305,0.3008,0.299,0.2964,0.2963,0.2953,0.2947,0.2948,0.2939,0.2938,0.2938,0.2934,0.2933,0.2945,0.2945,0.2945,0.2945,0,0.3199,0.3182,0.3174,0.3147,0.3133,0.3117,0.3095,0.3083,0.3071,0.3055,0.3033,0.3011,0.2986,0.2979,0.2967,0.2952,0.295,0.2944,0.2939,0.2939,0.2935,0.2934,0.2946,0.2946,0.2946,0.2945,0,0,0.321,0.3172,0.3169,0.3156,0.3128,0.3114,0.3097,0.3074,0.3063,0.3043,0.3028,0.3,0.2993,0.2978,0.2964,0.2954,0.2949,0.2948,0.2947,0.2949,0.293,0.2935,0.2934,0.2941,0.2941,0.2941,0.2932,0,0.3205,0.3176,0.3158,0.3136,0.3119,0.3102,0.3087,0.3067,0.3052,0.3035,0.3017,0.2998,0.2991,0.2982,0.2971,0.2952,0.2945,0.2952,0.2926,0.2925,0.2933,0.2932,0.2937,0.293,0.293,0.293,0.293,0,0.3196,0.3177,0.3153,0.3126,0.3118,0.3105,0.3082,0.3066,0.3043,0.3032,0.3016,0.3002,0.2982,0.2979,0.2952,0.2958,0.2946,0.2935,0.2934,0.293,0.2927,0.2928,0.2927,0.2926,0.2927,0.2928,0.2928,0,0.3205,0.3174,0.3155,0.3144,0.3112,0.3104,0.309,0.3067,0.3053,0.3033,0.3024,0.3001,0.2988,0.297,0.295,0.2949,0.2924,0.2919,0.2914,0.2914,0.2909,0.2909,0.2906,0.2902,0.2902,0.2902,0.2902,0,0.3202,0.3188,0.3159,0.3147,0.3131,0.311,0.3094,0.3078,0.3058,0.3042,0.3025,0.3011,0.2985,0.2967,0.2951,0.293,0.2924,0.2915,0.291,0.2916,0.2917,0.2907,0.2907,0.2902,0.2902,0.2902,0.2902,0,0.3209,0.319,0.3168,0.314,0.3132,0.3121,0.3096,0.3084,0.3067,0.3048,0.3042,0.3016,0.2994,0.2972,0.2942,0.2931,0.291,0.2905,0.2919,0.2916,0.2912,0.2912,0.2901,0.2898,0.2897,0.2897,0.2897,0,0.3208,0.3197,0.3167,0.3156,0.3143,0.3125,0.3111,0.309,0.3077,0.3049,0.304,0.3017,0.2997,0.2963,0.294,0.2917,0.2911,0.2908,0.2907,0.2913,0.291,0.2911,0.2909,0.2909,0.2909,0.2909,0.2909,0,0.3208,0.3199,0.318,0.3159,0.3143,0.3125,0.3106,0.3097,0.3072,0.3058,0.3035,0.302,0.299,0.2967,0.2941,0.2925,0.2913,0.291,0.2907,0.2913,0.2921,0.2916,0.292,0.291,0.291,0.291,0.291,0.291,0.321,0.32,0.3177,0.3157,0.3141,0.3123,0.311,0.3092,0.3074,0.3048,0.3036,0.3013,0.299,0.2954,0.2938,0.292,0.2916,0.2913,0.2912,0.2911,0.2912,0.2924,0.2915,0.2915,0.2915,0.2915,0.2915,0,0.3209,0.3194,0.3175,0.315,0.3134,0.3124,0.3102,0.3089,0.307,0.3049,0.3031,0.3004,0.2982,0.2958,0.2934,0.2923,0.2917,0.2917,0.2918,0.2914,0.2917,0.2921,0.2923,0.2923,0.2923,0.2923,0.2923,0.2923,0.3206,0.3187,0.3175,0.3147,0.3131,0.311,0.3098,0.3081,0.3065,0.3037,0.3018,0.3003,0.2981,0.2955,0.2933,0.2926,0.2918,0.292,0.2912,0.2915,0.2914,0.2913,0.2918,0.2919,0.2919,0.2911,0.2911,0.2911]}]]